Stations météo

réclame
Mon MeteoGroup
St-Hubert, Belgique (6476): Température de l'air & dewpoint: 15.09.2018 10:00:00 - 21.09.2018 10:00:00 (CEST)St-Hubert, Belgique (6476): Vitesse du vent & gusts: 15.09.2018 10:00:00 - 21.09.2018 10:00:00 (CEST)St-Hubert, Belgique (6476): Direction du vent: 15.09.2018 10:00:00 - 21.09.2018 10:00:00 (CEST)St-Hubert, Belgique (6476): reduced air pressure: 15.09.2018 10:00:00 - 21.09.2018 10:00:00 (CEST)St-Hubert, Belgique (6476): visibility: 15.09.2018 10:00:00 - 21.09.2018 10:00:00 (CEST)
Date & Time tt [°C] td [°C] ff [km/h] ff [knt] fx [km/h] fx [knt] dd ppp [hPa] vv [km]
21.09.2018 10:00:00 14,7 11,9 36 19 54 29 SW 1007,4 22
21.09.2018 09:00:00 14,8 11,0 32 18 50 27 SW 1007,2 29
21.09.2018 08:00:00 15,3 9,9 29 16 - - SW 1007,5 45
21.09.2018 07:00:00 16,2 10,0 36 19 54 29 SW 1007,2 40
21.09.2018 06:00:00 16,1 11,0 29 16 47 25 SSW 1007,9 35
21.09.2018 05:00:00 16,6 11,0 29 16 - - SSW 1008,2 35
21.09.2018 04:00:00 17,4 10,4 25 14 43 23 SW 1009,0 45
21.09.2018 03:00:00 17,2 10,7 22 12 36 19 SSW 1010,0 45
21.09.2018 02:00:00 16,8 11,3 22 12 - - SSW 1010,6 30
21.09.2018 01:00:00 16,6 11,8 22 12 32 18 SSW 1011,2 35
21.09.2018 00:00:00 16,6 11,9 18 10 29 16 SSW 1012,0 35
20.09.2018 23:00:00 17,1 11,6 18 10 - - SSW 1012,7 30
20.09.2018 22:00:00 17,0 11,7 14 8 25 14 S 1013,4 35
20.09.2018 21:00:00 16,6 11,4 14 8 25 14 SSW 1014,0 35
20.09.2018 20:00:00 17,1 10,9 14 8 - - SSW 1014,4 40
20.09.2018 19:00:00 18,7 10,2 18 10 36 19 SSW 1014,7 35
20.09.2018 18:00:00 20,1 9,2 22 12 36 19 SSW 1015,1 35
20.09.2018 17:00:00 21,0 10,5 18 10 - - SSW 1015,4 30
20.09.2018 16:00:00 20,7 11,1 18 10 32 18 SSW 1016,4 30
20.09.2018 15:00:00 20,5 11,3 22 12 32 18 SSW 1017,1 21
20.09.2018 14:00:00 19,2 11,0 22 12 - - SW 1017,9 25
20.09.2018 13:00:00 18,4 11,6 22 12 43 23 SW 1018,4 27
20.09.2018 12:00:00 17,9 12,2 22 12 32 18 SW 1018,8 25
20.09.2018 11:00:00 16,5 12,1 22 12 - - WSW 1019,3 24
20.09.2018 10:00:00 15,3 12,2 14 8 25 14 SW 1019,4 20
20.09.2018 09:00:00 14,2 11,7 14 8 25 14 SW 1019,6 20
20.09.2018 08:00:00 14,0 11,4 18 10 - - SW 1019,5 21
20.09.2018 07:00:00 13,4 11,1 11 6 18 10 SSW 1019,7 20
20.09.2018 06:00:00 12,9 10,7 11 6 18 10 SSW 1019,8 20
20.09.2018 05:00:00 12,8 10,5 11 6 - - SW 1020,1 19
20.09.2018 04:00:00 12,0 10,1 7 4 11 6 SW 1020,3 22
20.09.2018 03:00:00 12,3 9,9 7 4 11 6 SSW 1020,1 22
20.09.2018 02:00:00 12,4 9,9 7 4 - - SW 1020,5 23
20.09.2018 01:00:00 12,9 10,3 7 4 7 4 WSW 1020,9 23
20.09.2018 00:00:00 13,7 11,0 7 4 11 6 W 1020,8 25
19.09.2018 23:00:00 14,1 11,1 7 4 - - W 1020,7 22
19.09.2018 22:00:00 14,8 11,1 11 6 11 6 WSW 1020,2 28
19.09.2018 21:00:00 15,6 11,7 11 6 22 12 WSW 1019,8 29
19.09.2018 20:00:00 18,1 12,1 18 10 - - W 1019,0 35
19.09.2018 19:00:00 20,6 13,0 22 12 36 19 WSW 1017,9 30
19.09.2018 18:00:00 21,6 12,4 25 14 40 21 SW 1017,4 40
19.09.2018 17:00:00 22,3 12,6 25 14 - - SW 1017,4 28
19.09.2018 16:00:00 21,5 13,1 29 16 43 23 WSW 1017,7 30
19.09.2018 15:00:00 21,6 13,5 29 16 47 25 WSW 1017,9 26
19.09.2018 14:00:00 20,6 13,8 29 16 - - SW 1018,4 28
19.09.2018 13:00:00 20,3 14,9 25 14 43 23 SW 1018,3 24
19.09.2018 12:00:00 19,3 15,3 22 12 36 19 SSW 1018,6 25
19.09.2018 11:00:00 18,8 15,6 18 10 - - SW 1018,6 22
19.09.2018 10:00:00 17,2 15,5 14 8 22 12 SW 1018,9 19
19.09.2018 09:00:00 15,6 14,4 14 8 22 12 S 1018,4 13
19.09.2018 08:00:00 14,5 13,6 14 8 - - S 1018,8 12
19.09.2018 07:00:00 13,7 13,1 7 4 14 8 SSW 1019,1 9
19.09.2018 06:00:00 13,8 13,1 11 6 14 8 SSW 1018,6 10
19.09.2018 05:00:00 13,5 12,7 11 6 - - SSW 1018,9 11
19.09.2018 04:00:00 12,8 12,2 7 4 11 6 SW 1019,0 10
19.09.2018 03:00:00 13,5 12,7 7 4 11 6 WSW 1018,8 12
19.09.2018 02:00:00 12,5 11,9 4 2 - - SSW 1018,7 15
19.09.2018 01:00:00 13,9 13,1 4 2 11 6 W 1018,3 20
19.09.2018 00:00:00 15,5 13,6 11 6 14 8 WSW 1017,9 26
18.09.2018 23:00:00 16,2 13,6 11 6 - - WSW 1017,3 30
18.09.2018 22:00:00 16,6 13,3 14 8 22 12 WSW 1017,2 35
18.09.2018 21:00:00 17,8 13,1 14 8 29 16 WSW 1016,6 40
18.09.2018 20:00:00 19,5 13,0 18 10 - - WSW 1015,7 45
18.09.2018 19:00:00 20,9 14,1 18 10 29 16 WSW 1014,7 35
18.09.2018 18:00:00 21,2 13,3 18 10 36 19 WSW 1014,6 40
18.09.2018 17:00:00 20,9 12,2 18 10 - - WSW 1014,7 30
18.09.2018 16:00:00 22,5 10,7 18 10 43 23 SW 1014,2 35
18.09.2018 15:00:00 24,6 10,0 29 16 40 21 SSW 1013,6 35
18.09.2018 14:00:00 24,0 10,9 22 12 - - SW 1013,7 30
18.09.2018 13:00:00 23,6 11,1 22 12 40 21 SW 1013,7 35
18.09.2018 12:00:00 22,5 13,4 14 8 32 18 SW 1013,6 30
18.09.2018 11:00:00 20,8 12,5 18 10 - - WSW 1014,1 30
18.09.2018 10:00:00 19,3 11,2 14 8 22 12 SSW 1013,9 35
18.09.2018 09:00:00 17,8 10,5 14 8 22 12 SSW 1014,2 40
18.09.2018 08:00:00 16,6 9,7 14 8 - - S 1013,9 45
18.09.2018 07:00:00 16,0 9,6 7 4 25 14 SSW 1014,0 45
18.09.2018 06:00:00 16,6 9,6 18 10 25 14 SSE 1014,0 45
18.09.2018 05:00:00 17,0 9,3 18 10 - - S 1014,0 45
18.09.2018 04:00:00 17,1 9,6 18 10 29 16 S 1014,2 45
18.09.2018 03:00:00 17,0 9,5 14 8 25 14 SSE 1014,5 45
18.09.2018 02:00:00 17,0 9,1 18 10 - - SSE 1014,8 45
18.09.2018 01:00:00 17,5 8,2 18 10 29 16 SSE 1015,2 45
18.09.2018 00:00:00 17,7 7,9 18 10 25 14 SE 1015,5 45
17.09.2018 23:00:00 17,1 7,7 18 10 - - SE 1015,9 45
17.09.2018 22:00:00 17,7 7,4 14 8 25 14 SE 1015,9 45
17.09.2018 21:00:00 17,6 5,9 14 8 18 10 SE 1016,3 45
17.09.2018 20:00:00 18,0 4,9 7 4 - - SE 1016,1 45
17.09.2018 19:00:00 20,7 5,4 11 6 18 10 SSE 1015,9 40
17.09.2018 18:00:00 22,3 5,8 7 4 14 8 S 1016,0 35
17.09.2018 17:00:00 22,0 3,4 11 6 - - S 1016,7 40
17.09.2018 16:00:00 22,7 4,4 11 6 18 10 SW 1017,2 45
17.09.2018 15:00:00 22,0 4,1 11 6 25 14 SSW 1018,0 35
17.09.2018 14:00:00 21,7 5,6 7 4 - - S 1018,6 35
17.09.2018 13:00:00 20,5 6,7 11 6 22 12 S 1019,2 40
17.09.2018 12:00:00 19,7 7,2 11 6 18 10 S 1019,6 35
17.09.2018 11:00:00 18,4 7,5 14 8 - - SSW 1020,1 45
17.09.2018 10:00:00 17,5 7,8 7 4 11 6 SSW 1020,2 40
17.09.2018 09:00:00 16,0 8,8 4 2 11 6 S 1020,4 40
17.09.2018 08:00:00 10,6 5,8 7 4 - - S 1021,4 45
17.09.2018 07:00:00 10,6 4,2 4 2 7 4 SW 1021,9 45
17.09.2018 06:00:00 10,6 3,9 4 2 7 4 SSW 1021,8 45
17.09.2018 05:00:00 10,9 4,6 4 2 - - S 1021,5 45
17.09.2018 04:00:00 11,1 5,3 4 2 4 2 WSW 1021,8 45
17.09.2018 03:00:00 12,6 5,8 4 2 4 2 W 1021,4 45
17.09.2018 02:00:00 11,3 6,4 4 2 - - E 1021,6 45
17.09.2018 01:00:00 14,2 5,8 4 2 7 4 N 1021,3 45
17.09.2018 00:00:00 12,0 5,8 4 2 7 4 W 1022,1 45
16.09.2018 23:00:00 14,0 6,5 4 2 - - W 1021,5 45
16.09.2018 22:00:00 14,2 6,8 4 2 7 4 NW 1021,5 45
16.09.2018 21:00:00 13,8 6,2 7 4 7 4 SSW 1021,4 50
16.09.2018 20:00:00 15,6 7,5 4 2 - - SSW 1020,7 45
16.09.2018 19:00:00 17,7 6,8 4 2 14 8 S 1020,1 45
16.09.2018 18:00:00 19,0 7,7 11 6 18 10 SSE 1019,5 40
16.09.2018 17:00:00 20,6 6,5 7 4 - - S 1019,3 40
16.09.2018 16:00:00 19,8 5,6 7 4 18 10 SE 1019,9 40
16.09.2018 15:00:00 19,6 6,3 7 4 22 12 S 1020,6 35
16.09.2018 14:00:00 19,1 6,9 11 6 - - S 1021,0 30
16.09.2018 13:00:00 17,8 5,5 11 6 25 14 SE 1021,7 35
16.09.2018 12:00:00 17,1 7,3 14 8 22 12 SE 1022,6 35
16.09.2018 11:00:00 16,0 7,6 14 8 - - SSE 1023,2 35
16.09.2018 10:00:00 14,7 7,1 11 6 22 12 SE 1023,5 40
16.09.2018 09:00:00 13,0 6,2 14 8 18 10 SE 1023,5 40
16.09.2018 08:00:00 11,2 6,4 14 8 - - ESE 1023,9 45
16.09.2018 07:00:00 10,3 6,2 14 8 22 12 ESE 1024,1 45
16.09.2018 06:00:00 10,7 6,5 14 8 22 12 ESE 1024,1 45
16.09.2018 05:00:00 10,5 6,9 11 6 - - ESE 1024,5 45
16.09.2018 04:00:00 9,2 7,0 7 4 7 4 E 1025,3 45
16.09.2018 03:00:00 9,8 7,2 7 4 11 6 SE 1025,7 45
16.09.2018 02:00:00 9,8 6,8 7 4 - - SE 1026,2 45
16.09.2018 01:00:00 11,0 7,3 7 4 7 4 SE 1026,2 45
16.09.2018 00:00:00 9,0 6,7 7 4 11 6 SSE 1027,0 45
15.09.2018 23:00:00 10,2 7,0 4 2 - - S 1026,8 45
15.09.2018 22:00:00 10,1 7,2 7 4 7 4 SSE 1026,9 45
15.09.2018 21:00:00 9,9 7,5 4 2 4 2 E 1026,5 45
15.09.2018 20:00:00 13,0 7,8 0 0 - - N 1025,5 45
15.09.2018 19:00:00 15,3 8,2 7 4 11 6 WSW 1024,8 35
15.09.2018 18:00:00 15,3 7,6 4 2 14 8 WNW 1025,0 40
15.09.2018 17:00:00 14,9 8,0 7 4 - - WNW 1025,3 45
15.09.2018 16:00:00 15,1 7,7 11 6 14 8 NW 1025,3 40
15.09.2018 15:00:00 15,4 7,8 7 4 29 16 NNW 1025,3 40
15.09.2018 14:00:00 15,2 7,9 14 8 - - WNW 1025,4 40
15.09.2018 13:00:00 14,9 8,8 14 8 29 16 WNW 1025,6 40
15.09.2018 12:00:00 13,6 9,3 14 8 25 14 WSW 1025,9 30
15.09.2018 11:00:00 11,9 9,7 14 8 - - WSW 1025,9 21
15.09.2018 10:00:00 9,6 9,3 11 6 14 8 W 1026,3 0,1

tt = Température de l'air
td = dewpoint
ff = Vitesse du vent
fx = gusts
dd = Direction du vent
ppp = reduced air pressure
vv = visibility

stations d'obs. à proximité